SL-12 R/B(2)

Last updated on Sun Apr 12 2026 00:02:16 GMT+0000 (Coordinated Universal Time)

1 15772U 85042D 26101.49687390 .00000057 00000+0 46879-4 0 9996 2 15772 71.1106 18.4159 0032976 73.6606 98.4705 14.21992265119053
UTC large
Height (km)
Speed (km/s)
/
Latitude / Longitude
Inclination (degrees)
Orbital Period (minutes)
Azimuth
Elevation
Range (km)
Doppler Factor

Next 0 passes for location: London (51.5072 / 0.1276)

Sorry there are no passes over London.